Flag for Czech Republic Weather past 2 weeks in Plzen, Czech Republic

Now
36 °F

Light snow. Overcast.


Feels Like: 28 °F
Forecast: 28 / 37 °F
Wind: 10 mph from West

Location: Kocelovice

Current Time: Dec 25, 2014 at 11:14:51 PM

Latest Report: Dec 25, 2014 at 9:00 PM


Visibility: 16 mi

Pressure: 30.21 "Hg

Humidity: 71%

Dew point: 28 °F

Location of PlzenLocation

Historic Weather in Plzen — Graph

°F

Plzen temperature yesterday

Maximum temperature yesterday: 45 °F (at 8:00 PM)
Minimum temperature yesterday: 35 °F (at 10:00 AM)
Average temperature yesterday: 40 °F

Past Weeks' High & Low Weather Summary

 TemperatureHumidityPressure
High50 °F (Dec 18, 11:00 PM)99% (Dec 16, 8:00 AM)30.43 "Hg (Dec 16, 8:00 AM)
Low31 °F (Dec 10, 9:00 PM)57% (Dec 12, 3:00 PM)29.75 "Hg (Dec 12, 8:00 PM)
Average41 °F79%30.04 "Hg
* Reported Dec 10 9:00 PM — Dec 25 9:00 PM, Plzen, Weather by CustomWeather, © 2014

Note: Actual official high and low records may vary slightly from our data, if they occured in-between our weather recording intervals... More about our weather records

Advertising

Plzen weather history for previous 24 hours

 ConditionsComfort  
Time TempWeatherWind HumidityBarometerVisibility
9:00 PM
Dec 25
36 °FLight snow. Overcast.10 mph71%30.21 "Hg16 mi
8:00 PM36 °FPassing clouds.9 mph73%30.21 "Hg25 mi
7:00 PM36 °FOvercast.8 mph70%30.21 "Hg25 mi
6:00 PM36 °FOvercast.7 mph68%30.20 "Hg22 mi
5:00 PM36 °FPassing clouds.8 mph68%30.20 "Hg22 mi
4:00 PM37 °FPartly sunny.9 mph63%30.19 "Hg22 mi
3:00 PM36 °FOvercast.8 mph65%30.19 "Hg22 mi
2:00 PM37 °FOvercast.10 mph64%30.18 "Hg16 mi
1:00 PM36 °FOvercast.10 mph67%30.19 "Hg22 mi
12:00 PM36 °FOvercast.9 mph72%30.20 "Hg19 mi
11:00 AM36 °FOvercast.8 mph77%30.20 "Hg19 mi
10:00 AM36 °FScattered clouds.7 mph79%30.19 "Hg22 mi
9:00 AM36 °FPartly sunny.7 mph84%30.16 "Hg16 mi
8:00 AM36 °FLight rain. Low clouds.3 mph94%30.16 "Hg7 mi
7:00 AM36 °FOvercast.N/A92%30.14 "Hg16 mi
6:00 AM36 °FLight rain. Overcast.3 mph92%30.12 "Hg12 mi
5:00 AM43 °FQuite cool.9 mph81%30.05 "Hg12 mi
3:00 AM42 °FQuite cool.10 mph78%30.07 "Hg12 mi
2:00 AM42 °FQuite cool.9 mph78%30.07 "Hg12 mi
1:00 AM42 °FQuite cool.10 mph77%30.07 "Hg12 mi
12:00 AM42 °FQuite cool.12 mph75%30.07 "Hg12 mi
11:00 PM
Dec 24
43 °FQuite cool.12 mph70%30.06 "Hg12 mi
Weather by CustomWeather, © 2014

See weather overviewHow to use our weather pages